Address 0x273704679f6ddd42ed08f4d34414d885ba8aa18a 5

 
 
Txn Hash Method
Block
From
To
Value [Txn Fee]
0xca8368c2d5327fc50719042917c87af624cf6be3e2d91f0e76280a523ac4cfc5Burn271278622022-04-14 13:18:3772 days 1 hr ago0x273704679f6ddd42ed08f4d34414d885ba8aa18aOUT 0x05cadbf3128bcb7f2b89f3dd55e5b0a036a49e200 MATIC0.006068971 32.40361893
0x010acd79077c2595831ab95e4a4e3de36e117f06691c3d55a752d0c4b425ede0Exchange_underly...271274552022-04-14 13:03:2372 days 1 hr ago0x273704679f6ddd42ed08f4d34414d885ba8aa18aOUT Curve.fi: renBTC Pool0 MATIC0.010733596986 31.755546444
0x580205e1da5068fb7b855ef61da7a9486b2d0379d670da34046be6f19e7bb1f0Swap271274332022-04-14 13:02:3972 days 1 hr ago0x273704679f6ddd42ed08f4d34414d885ba8aa18aOUT Metamask: Swap Router0 MATIC0.034107834251 30.498026803
0x5a88c96c0dd8f2581bcd38a473c17f64574a08df5dc96f163796efa500daa5ecApprove271274332022-04-14 13:02:3972 days 1 hr ago0x273704679f6ddd42ed08f4d34414d885ba8aa18aOUT Wrapped Ether0 MATIC0.001424623828 30.498026803
0x4c6a5b42e5ba3f528a5e952f5c899f08886fd662dad6033dc13b4f15d7e05f0dTransfer271273882022-04-14 13:01:0572 days 2 hrs ago0x32672af4edc13cf1ab5dab6c5cda5df71ad35951 IN 0x273704679f6ddd42ed08f4d34414d885ba8aa18a0.88677463 MATIC0.000945 45
0xe392fcb1e80f3c72b2c624e2038cb68a8dcfb55d14f2ce78f221c1135541f741Burn268146322022-04-06 13:20:1280 days 1 hr ago0x273704679f6ddd42ed08f4d34414d885ba8aa18aOUT 0x05cadbf3128bcb7f2b89f3dd55e5b0a036a49e200 MATIC0.00579651212 30.946916103
0x62d639cac6fa60151f8d17d73d1d231fac05af03a991d019e1c3f63d7d01695dExchange_underly...268142892022-04-06 13:08:2680 days 1 hr ago0x273704679f6ddd42ed08f4d34414d885ba8aa18aOUT Curve.fi: renBTC Pool0 MATIC0.010090062221 33.319999541
0xeb37b3fba043b77181d5db7043e8f94a663e7945d16a7cece948b4148ff53cd9Swap268140452022-04-06 12:59:5380 days 2 hrs ago0x273704679f6ddd42ed08f4d34414d885ba8aa18aOUT Metamask: Swap Router22 MATIC0.01049018526 30.808994249
0xdb6466fb5c1c70cca7f67963e1a61b75b5195f3dff5938b63769f92fca1084c9Transfer268140122022-04-06 12:58:4380 days 2 hrs ago0x32672af4edc13cf1ab5dab6c5cda5df71ad35951 IN 0x273704679f6ddd42ed08f4d34414d885ba8aa18a15.273310320958036 MATIC0.000798 38
0xa280c7012c698fc40bd2fc215d7474e086e6450be565b5ba594839836b64add7Burn265807822022-03-31 14:42:3986 days 18 mins ago0x273704679f6ddd42ed08f4d34414d885ba8aa18aOUT 0x05cadbf3128bcb7f2b89f3dd55e5b0a036a49e200 MATIC0.020510329392 106.766244462
0x225ca4bf5963e3edc9bc5619d39a647ca4c78586987cf16446d7260ec25d38f2Exchange_underly...265807422022-03-31 14:38:3986 days 22 mins ago0x273704679f6ddd42ed08f4d34414d885ba8aa18aOUT Curve.fi: renBTC Pool0 MATIC0.014374543125 44.931258851
0x5b4fa7d08268c1d740078a290fd956a2a20db65a1c15aa70e313ef84d7d4e64eSwap265807302022-03-31 14:37:4386 days 23 mins ago0x273704679f6ddd42ed08f4d34414d885ba8aa18aOUT Metamask: Swap Router0 MATIC0.016473819865 42.061640013
0x610ec8b97ae6abf91ac1b2c56942ca157fe9d6eeb2ffa690f1b7b27bb840a1d1Swap265807002022-03-31 14:36:4386 days 24 mins ago0x273704679f6ddd42ed08f4d34414d885ba8aa18aOUT Metamask: Swap Router0 MATIC0.019426392573 42.054203438
0x44c3c913fe9a4103d9ac8b52c19f1f681415fb1c5525cce4c0c2f225fd5a8bc6Burn265582262022-03-31 0:31:4986 days 14 hrs ago0x273704679f6ddd42ed08f4d34414d885ba8aa18aOUT 0x05cadbf3128bcb7f2b89f3dd55e5b0a036a49e200 MATIC0.007195508879 38.415999999
0x10a90a6dbb7fe6b1c245af09038e65069ab577d8cd6af0e30a5fb064e91e50d4Exchange_underly...265581512022-03-31 0:29:1586 days 14 hrs ago0x273704679f6ddd42ed08f4d34414d885ba8aa18aOUT Curve.fi: renBTC Pool0 MATIC0.014640080577 43.309875655
0x8807a6c293a0e079813b0150e4ca88439c62d1d5a7d496ef5bb178c906d35a6dApprove265581392022-03-31 0:28:4786 days 14 hrs ago0x273704679f6ddd42ed08f4d34414d885ba8aa18aOUT Wrapped BTC: WBTC Token0 MATIC0.002148756457 41.26510328
0x1319892c1828b54ebcc1eb6766a453161c4e0571c7f56ac573930f169fdcace4Swap265581122022-03-31 0:27:5386 days 14 hrs ago0x273704679f6ddd42ed08f4d34414d885ba8aa18aOUT Metamask: Swap Router0 MATIC0.012784743748 35.709878996
0x3fcd694c9e61e8d55151f67fabb2fb21d0f33c6c54893077831420f0aad774c7Swap265580822022-03-31 0:26:5386 days 14 hrs ago0x273704679f6ddd42ed08f4d34414d885ba8aa18aOUT Metamask: Swap Router0 MATIC0.01185460889 33.662373823
0xdaf3dbac00d198b1cb41af6b5cc19b91864c0da9bee56d8a3df90c0e627c2361Swap265580572022-03-31 0:25:5986 days 14 hrs ago0x273704679f6ddd42ed08f4d34414d885ba8aa18aOUT Metamask: Swap Router0 MATIC0.013070009638 35.776781621
0xfe12203312ad628cb4167cf4ad20f53713632bc9a7d57a0bc675007927809313Approve265580542022-03-31 0:25:5386 days 14 hrs ago0x273704679f6ddd42ed08f4d34414d885ba8aa18aOUT Request Network: REQ Token0 MATIC0.001667591568 35.776781624
0x368110a059e1344cc16f7c519090a1f402753f340849084e27f9de4501f54b52Swap265213402022-03-30 1:40:0787 days 13 hrs ago0x273704679f6ddd42ed08f4d34414d885ba8aa18aOUT Metamask: Swap Router0 MATIC0.016806517057 32.928000003
0x73ab2beff9e6364882c772052b78a2ce4d8fba161413f1705650e6aad7d36d40Approve265213402022-03-30 1:40:0787 days 13 hrs ago0x273704679f6ddd42ed08f4d34414d885ba8aa18aOUT Mapper: USDT Stablecoin0 MATIC0.001714626816 32.928000003
0x7ca9c713e8365bbe73dbf6ab1ccf9d09084ea2abdb932c108d0ab0a096becf74Swap265212502022-03-30 1:37:0387 days 13 hrs ago0x273704679f6ddd42ed08f4d34414d885ba8aa18aOUT Metamask: Swap Router0 MATIC0.046615817999 40.34447161
0x3942368462acefec92e037d0094f6c352f1b50e5065dd6931f392db3559b7408Swap265211352022-03-30 1:33:0587 days 13 hrs ago0x273704679f6ddd42ed08f4d34414d885ba8aa18aOUT Metamask: Swap Router0 MATIC0.030709602698 32.094647198
0x6c71e54574308097b4b6ace5eca75b11eb72a0f856bbe71e3c6ba4df931f20f8Approve265211312022-03-30 1:32:5787 days 13 hrs ago0x273704679f6ddd42ed08f4d34414d885ba8aa18aOUT Yearn.Finance : YFI Token0 MATIC0.001671232468 32.0946472
[ Download CSV Export 
Latest 4 internal transactions
Parent Txn Hash Block From To Value
0x5ca4a475af96878a20f8d3754260a22dce0bb216b36a4754c9254faff001094a262024122022-03-21 21:31:4395 days 17 hrs ago 0xf2e4209afa4c3c9eaa3fb8e12eed25d8f328171c0x273704679f6ddd42ed08f4d34414d885ba8aa18a57.39860050778040868 MATIC
0x396410ec59128a3cbf3b882fe5ad35e13b53c53da0e21a6948853e7df831b2e9261948592022-03-21 16:50:3795 days 22 hrs ago 0xf2e4209afa4c3c9eaa3fb8e12eed25d8f328171c0x273704679f6ddd42ed08f4d34414d885ba8aa18a58.682638730613619286 MATIC
0x08e2a5490fb69a8656b917f8db17f1e7875e2e24f9070e476dc3ca2a283f1be3261795102022-03-21 7:29:5896 days 7 hrs ago 0xf2e4209afa4c3c9eaa3fb8e12eed25d8f328171c0x273704679f6ddd42ed08f4d34414d885ba8aa18a59.239676582625510109 MATIC
0xe199edbe469955a3b73f4851cf049258bb4740213028ce6254b8cbea1ed1b450237187082022-01-14 18:47:11161 days 20 hrs ago QuickSwap: Router0x273704679f6ddd42ed08f4d34414d885ba8aa18a2.505169934683593344 MATIC
[ Download CSV Export 
Loading

Contract Name:
0 MATIC

Compiler Version
0

Optimization Enabled:
0 MATIC

Other Settings:
-NA-
Block Transaction Gas Used Reward
Age Block Fee Address BC Fee Address Voting Power Jailed Incoming
Block Uncle Number Difficulty Gas Used Reward
Loading
Loading
Make sure to use the "Vote Down" button for any spammy posts, and the "Vote Up" for interesting conversations.